NOAA 15 1 25338U 98030A 22146.53014502 .00000224 00000-0 11200-3 0 9991 2 25338 98.6453 176.3509 0010395 8.6977 351.4382 14.26129921249899 METEOSAT 8 (MSG 1) 1 27509U 02040B 22145.89077012 .00000130 00000-0 00000-0 0 9991 2 27509 7.9986 50.7835 0002454 329.1505 225.7299 1.00278137 72387 KALPANA 1 (METSAT 1) 1 27525U 02043A 22146.36402999 -.00000007 00000-0 00000-0 0 9995 2 27525 10.5972 43.1191 0009104 65.3176 157.0023 0.98337086 71907 NOAA 18 1 28654U 05018A 22146.53413395 .00000169 00000-0 11488-3 0 9998 2 28654 98.9495 216.9868 0014780 37.8208 322.3999 14.12733565876970 METEOSAT 9 (MSG 2) 1 28912U 05049B 22145.93035473 .00000125 00000-0 00000-0 0 9996 2 28912 5.9721 66.4487 0001322 351.8620 205.8955 1.00264896 60169 HIMAWARI 7 1 28937U 06004A 22146.51748939 -.00000006 00000-0 00000-0 0 9997 2 28937 1.9548 89.9521 0003911 50.0202 134.3544 0.99077509 59537 FORMOSAT 3A 1 29047U 06011A 22146.28912149 .00000385 00000-0 16625-3 0 9990 2 29047 71.9774 105.0484 0052077 280.3657 79.1611 14.28962535842399 FORMOSAT 3B 1 29048U 06011B 22146.32599190 .00000329 00000-0 14528-3 0 9991 2 29048 71.9678 15.0653 0045078 241.2565 118.4038 14.28929714844875 FORMOSAT 3C 1 29049U 06011C 22145.51792399 .00000356 00000-0 15581-3 0 9998 2 29049 72.0196 192.3857 0036754 262.4825 97.2136 14.29012743840553 FORMOSAT 3D 1 29050U 06011D 22143.68840889 .00001904 00000-0 40512-3 0 9996 2 29050 72.0166 269.9244 0048117 123.7555 236.8197 14.59444139859175 FORMOSAT 3E 1 29051U 06011E 22144.59137182 .00000524 00000-0 21771-3 0 9996 2 29051 72.0044 94.9529 0067269 144.9761 215.5828 14.29048620843008 FORMOSAT 3F 1 29052U 06011F 22146.49814284 .00000371 00000-0 16108-3 0 9991 2 29052 72.0323 167.3862 0041372 219.9016 139.9078 14.29157954840775 GOES 13 1 29155U 06018A 22146.61003274 .00000037 00000-0 00000+0 0 9994 2 29155 0.5477 96.9031 0002232 90.3566 338.0538 1.00268415 58643 METOP-A 1 29499U 06044A 22146.61270538 .00001846 00000-0 25154-3 0 9993 2 29499 98.4519 190.5230 0199370 76.6536 39.9100 14.67183423810328 FENGYUN 2D 1 29640U 06053A 22144.90329747 -.00000112 00000-0 00000-0 0 9994 2 29640 8.1168 50.3653 0014173 9.4257 173.6097 0.98193472 56425 FENGYUN 3A 1 32958U 08026A 22146.39314337 .00000134 00000-0 84812-4 0 9996 2 32958 98.5007 109.9284 0009955 87.2292 273.0024 14.18717599725092 FENGYUN 2E 1 33463U 08066A 22145.88353642 -.00000207 00000-0 00000-0 0 9992 2 33463 5.8584 65.4436 0004291 11.8652 210.9380 1.00269242 49213 NOAA 19 1 33591U 09005A 22146.53285973 .00000199 00000-0 13289-3 0 9997 2 33591 99.1493 180.2075 0012936 247.7508 112.2291 14.12568626685092 GOES 14 1 35491U 09033A 22146.50397056 -.00000093 00000-0 00000+0 0 9999 2 35491 0.2704 95.1214 0011716 119.0573 106.7468 1.00271085 47288 METEOR-M 1 35865U 09049A 22146.51816897 .00000128 00000-0 76560-4 0 9998 2 35865 98.5263 117.6984 0001298 313.3271 46.7799 14.22334082658424 GOES 15 1 36411U 10008A 22146.52314748 .00000053 00000-0 00000+0 0 9990 2 36411 0.2422 103.6522 0001711 339.4537 221.4476 1.00262051 44797 COMS 1 1 36744U 10032A 22145.92836284 -.00000347 00000-0 00000-0 0 9991 2 36744 1.0101 93.0446 0000874 337.1141 275.6735 1.00269668 36219 FENGYUN 3B 1 37214U 10059A 22146.49066569 .00000017 00000-0 32883-4 0 9998 2 37214 99.0922 152.0743 0023139 58.6009 301.7435 14.14254872597853 NPP 1 37849U 11061A 22146.56929767 .00000069 00000-0 53543-4 0 9995 2 37849 98.7320 85.4256 0001347 78.7987 25.4499 14.19567195548089 FENGYUN 2F 1 38049U 12002A 22146.15510660 -.00000359 00000-0 00000-0 0 9996 2 38049 3.7400 79.8615 0003683 16.3359 315.4276 1.00263898 38009 METEOSAT 10 (MSG 3) 1 38552U 12035B 22146.19176229 .00000058 00000-0 00000-0 0 9999 2 38552 1.4924 39.8244 0000332 7.7797 274.6914 1.00264025 35988 METOP-B 1 38771U 12049A 22146.60715949 .00000115 00000-0 72677-4 0 9998 2 38771 98.6968 206.6816 0001954 105.9115 17.7563 14.21484451502622 FENGYUN 3C 1 39260U 13052A 22146.43468871 .00000110 00000-0 76462-4 0 9998 2 39260 98.4552 175.6619 0010789 344.8606 15.2248 14.15922703448806 METEOR M2 1 40069U 14037A 22146.56121264 .00000047 00000-0 41201-4 0 9999 2 40069 98.4325 165.3634 0006422 35.6462 324.5142 14.20709211408752 HIMAWARI 8 1 40267U 14060A 22146.50486329 -.00000277 00000-0 00000-0 0 9999 2 40267 0.0446 107.2647 0000756 335.8182 123.3804 1.00272038 27890 FENGYUN 2G 1 40367U 14090A 22146.49677240 -.00000305 00000-0 00000-0 0 9997 2 40367 1.8824 89.6502 0001553 351.7872 81.3612 1.00273590 27133 METEOSAT 11 (MSG 4) 1 40732U 15034A 22146.18975628 -.00000008 00000-0 00000-0 0 9999 2 40732 0.2505 47.2126 0001352 56.0703 208.4162 1.00273421 25150 ELEKTRO-L 2 1 41105U 15074A 22146.40218601 -.00000116 00000-0 00000-0 0 9994 2 41105 2.9351 88.3648 0001717 37.4463 248.3885 1.00272388 23647 HIMAWARI 9 1 41836U 16064A 22146.50495050 -.00000277 00000-0 00000+0 0 9998 2 41836 0.0158 321.7545 0000423 144.3188 100.4976 1.00267481 20438 GOES 16 1 41866U 16071A 22146.49285316 -.00000249 00000-0 00000-0 0 9999 2 41866 0.0434 260.7165 0000682 202.7760 242.7776 1.00272504 20249 FENGYUN 4A 1 41882U 16077A 22146.03035271 -.00000333 00000-0 00000-0 0 9990 2 41882 0.0851 294.3046 0004577 195.7492 229.0269 1.00272567 20100 CYGFM05 1 41884U 16078A 22146.25282517 .00003757 00000-0 19091-3 0 9999 2 41884 34.9565 340.0910 0015967 254.0382 105.8570 15.16232417301415 CYGFM04 1 41885U 16078B 22146.51006248 .00003523 00000-0 17656-3 0 9990 2 41885 34.9496 327.8442 0014512 271.9715 87.9334 15.16760411301491 CYGFM02 1 41886U 16078C 22146.23809948 .00003771 00000-0 18864-3 0 9995 2 41886 34.9590 331.7400 0015162 264.1484 95.7499 15.16797734301604 CYGFM01 1 41887U 16078D 22146.25198936 .00003641 00000-0 18606-3 0 9996 2 41887 34.9538 342.4528 0016477 253.4819 106.4083 15.16042369301369 CYGFM08 1 41888U 16078E 22146.24292782 .00003829 00000-0 19313-3 0 9994 2 41888 34.9504 335.2590 0015664 264.4466 95.4460 15.16487860301498 CYGFM06 1 41889U 16078F 22146.21861045 .00003886 00000-0 19430-3 0 9999 2 41889 34.9586 330.5462 0014119 264.1170 95.7933 15.16810208301470 CYGFM07 1 41890U 16078G 22145.93871850 .00004122 00000-0 20642-3 0 9995 2 41890 34.9518 331.1232 0013970 265.7234 94.1881 15.16743021301418 CYGFM03 1 41891U 16078H 22145.80560475 .00003730 00000-0 18701-3 0 9997 2 41891 34.9557 332.4184 0013498 262.8961 97.0216 15.16734392301383